{"data":{"norad_id":59174,"intl_designator":"2024-044Y","name":"STARLINK-31283","alt_names":[],"object_type":"PAYLOAD","status":"ACTIVE","operator":null,"country":"US","launch_date":"2024-03-04","launch_site_code":"AFETR","launch_vehicle":null,"mission":null,"orbit_class":"UNKNOWN","rcs_meters":null,"size_class":null,"mass_kg":null,"dimensions":null,"purposes":["comms"],"wikipedia_slug":null,"has_3d_model":false,"image_url":null,"decayed_at":null,"tle_current":{"epoch":"2026-09-20T22:00:03.000096Z","epoch_age_seconds":122846,"freshness":"FRESH","line1":"1 59174U 24044Y   26263.91670139  .00032532  00000+0  11867-2 0  9994","line2":"2 59174  43.0043  37.5720 0001890 274.6513 149.4059 15.27573654  5868","mean_motion":15.27573654,"eccentricity":0.000189,"inclination_deg":43.0043,"raan_deg":37.572,"arg_perigee_deg":274.6513,"mean_anomaly_deg":149.4059,"bstar":0.0011867,"rev_number":586,"period_min":94.267140326053,"perigee_km":481.77133054882,"apogee_km":484.36486607598,"semimajor_km":6861.2050983124,"source":"CELESTRAK","updated_at":"2026-09-21T09:00:34.061281Z"}}}